Weather History for KFHU - March, 2013

Change the Weather History Date:

Thursday, March 28, 2013

  Actual Average Record
Temperature  
Mean Temperature 63 °F -  
Max Temperature 75 °F 69 °F 84 °F (2015)
Min Temperature 51 °F 47 °F 31 °F (1991)
Degree Days  
Heating Degree Days 2    
Growing Degree Days 13 (Base 50)    
Moisture  
Dew Point 23 °F    
Average Humidity 22    
Maximum Humidity 38    
Minimum Humidity 10    
Precipitation  
Precipitation 0.00 in - - ()
Sea Level Pressure  
Sea Level Pressure 30.00 in    
Wind  
Wind Speed 5 mph (West)    
Max Wind Speed 15 mph    
Max Gust Speed 21 mph    
Visibility 10 miles    
Events      
Averages and records for this station are not official NWS values.
T = Trace of Precipitation, MM = Missing Value Source: NWS Daily Summary

Daily Weather History Graph

Daily Weather History Graph

Search for Another Location

Airport or City:

Trip Planner

Search our weather history database for the weather conditions in past years. The results will help you decide how hot, cold, wet, or windy it might be!

Date:

Astronomy

Mar. 28, 2013 Rise Set
Actual Time 6:14 AM MST 6:38 PM MST
Civil Twilight 5:50 AM MST 7:02 PM MST
Nautical Twilight 5:21 AM MST 7:31 PM MST
Astronomical Twilight 4:52 AM MST 8:00 PM MST
Moon 8:24 PM MST (3/28) 6:52 AM MST (3/28)
Length of Visible Light 13h 12m
Length of Day
12h 23m
Full, 98% of the Moon is Illuminated
Mar 28
Full
Apr 2
Last Quarter
Apr 10
New
Apr 18
First Quarter
Apr 25
Full

Hourly Weather History & Observations

Time (MST) Temp. Dew Point Humidity Pressure Visibility Wind Dir Wind Speed Gust Speed Precip Events Conditions
12:55 AM 60.8 °F 24.8 °F 25% 29.97 in 10.0 mi Variable 4.6 mph - N/A   Mostly Cloudy
1:55 AM 60.8 °F 24.8 °F 25% 29.96 in 10.0 mi Variable 3.5 mph - N/A   Mostly Cloudy
2:55 AM 57.2 °F 24.8 °F 29% 29.96 in 10.0 mi Variable 3.5 mph - N/A   Mostly Cloudy
3:55 AM 55.4 °F 26.6 °F 33% 29.96 in 10.0 mi Variable 5.8 mph - N/A   Mostly Cloudy
4:55 AM 55.4 °F 26.6 °F 33% 29.97 in 10.0 mi South 5.8 mph - N/A   Scattered Clouds
5:55 AM 51.8 °F 26.6 °F 38% 30.00 in 10.0 mi WSW 3.5 mph - N/A   Mostly Cloudy
6:55 AM 53.6 °F 26.6 °F 35% 30.03 in 10.0 mi Calm Calm - N/A   Scattered Clouds
6:56 AM 53.6 °F 26.6 °F 35% 30.03 in 10.0 mi Calm Calm - N/A   Scattered Clouds
7:55 AM 60.8 °F 26.6 °F 27% 30.02 in 10.0 mi NNE 3.5 mph - N/A   Scattered Clouds
8:55 AM 62.6 °F 28.4 °F 27% 30.03 in 10.0 mi Calm Calm - N/A   Mostly Cloudy
8:58 AM 66.2 °F 26.6 °F 23% 30.03 in 10.0 mi ENE 2.3 mph - N/A   Mostly Cloudy
9:55 AM 66.2 °F 26.6 °F 23% 30.03 in 10.0 mi Calm Calm - N/A   Mostly Cloudy
10:55 AM 69.8 °F 23.0 °F 17% 30.02 in 10.0 mi West 6.9 mph - N/A   Mostly Cloudy
11:55 AM 73.4 °F 23.0 °F 15% 30.00 in 10.0 mi South 8.1 mph - N/A   Mostly Cloudy
12:55 PM 73.4 °F 19.4 °F 13% 29.99 in 10.0 mi WSW 10.4 mph - N/A   Mostly Cloudy
1:55 PM 73.4 °F 23.0 °F 15% 29.97 in 10.0 mi West 15.0 mph 20.7 mph N/A   Overcast
2:55 PM 75.2 °F 15.8 °F 11% 29.95 in 10.0 mi WNW 11.5 mph - N/A   Mostly Cloudy
3:55 PM 73.4 °F 19.4 °F 13% 29.95 in 10.0 mi NW 9.2 mph - N/A   Mostly Cloudy
4:55 PM 73.4 °F 17.6 °F 12% 29.96 in 10.0 mi West 11.5 mph - N/A   Mostly Cloudy
5:55 PM 71.6 °F 12.2 °F 10% 29.99 in 10.0 mi West 12.7 mph - N/A   Mostly Cloudy
6:55 PM 66.2 °F 17.6 °F 15% 30.00 in 10.0 mi SW 12.7 mph - N/A   Mostly Cloudy
7:55 PM 64.4 °F 17.6 °F 16% 30.00 in 10.0 mi WSW 10.4 mph - N/A   Mostly Cloudy
8:55 PM 64.4 °F 19.4 °F 18% 30.01 in 10.0 mi West 9.2 mph - N/A   Mostly Cloudy
9:55 PM 60.8 °F 19.4 °F 20% 30.03 in 10.0 mi WNW 4.6 mph - N/A   Mostly Cloudy
10:55 PM 60.8 °F 21.2 °F 22% 30.17 in 10.0 mi West 8.1 mph - N/A   Mostly Cloudy
11:55 PM 59.0 °F 21.2 °F 23% 30.04 in 10.0 mi WSW 5.8 mph - N/A   Overcast